Home   Weather   Camaçari   Past weeks
Flag for Brazil

Past Weather in Camaçari, Bahia, Brazil — Yesterday and Last 2 Weeks

Now
79 °F

Passing clouds.


Feels Like: 81 °F
Forecast: 87 / 69 °F
Wind: 12 mph from East

Location: Salvador Aeroporto

Current Time: Oct 13, 2019 at 10:53:16 pm

Latest Report: Oct 13, 2019 at 10:00 pm


Visibility: N/A

Pressure: 30.04 "Hg

Humidity: 74%

Dew Point: 70 °F

Location of CamaçariLocation

Past Weather in Camaçari — Graph

°F

Camaçari Temperature Yesterday

Maximum temperature yesterday: 84 °F (at 2:00 pm)
Minimum temperature yesterday: 77 °F (at 7:00 am)
Average temperature yesterday: 80 °F

High & Low Weather Summary for the Past Weeks

 TemperatureHumidityPressure
High84 °F (Sep 30, 11:00 am)89% (Oct 1, 10:00 pm)30.09 "Hg (Oct 1, 10:00 pm)
Low70 °F (Oct 2, 6:00 pm)58% (Oct 6, 10:00 am)29.89 "Hg (Sep 30, 3:00 pm)
Average79 °F77%30.00 "Hg
* Reported Sep 28 9:00 pm — Oct 13 9:00 pm, Camaçari. Weather by CustomWeather, © 2019

Note: Actual official high and low records may vary slightly from our data, if they occured in-between our weather recording intervals... More about our weather records

Advertising

Camaçari Weather History for the Previous 24 Hours

Scroll right to see more
 ConditionsComfort  
Time TempWeatherWind HumidityBarometerVisibility
9:00 pm
Sun, Oct 13
79 °FPassing clouds.12 mph74%30.01 "HgN/A
8:00 pm79 °FPassing clouds.12 mph70%30.01 "HgN/A
7:00 pm79 °FPassing clouds.9 mph74%30.01 "HgN/A
6:00 pm81 °FPassing clouds.10 mph70%29.98 "HgN/A
5:00 pm81 °FScattered clouds.10 mph70%29.98 "HgN/A
4:00 pm82 °FScattered clouds.12 mph66%29.98 "HgN/A
3:00 pm82 °FScattered clouds.14 mph66%29.98 "HgN/A
2:00 pm82 °FScattered clouds.15 mph66%29.98 "HgN/A
1:00 pm84 °FScattered clouds.15 mph66%29.98 "HgN/A
12:00 pm82 °FScattered clouds.15 mph70%30.01 "HgN/A
11:00 am82 °FScattered clouds.14 mph70%30.04 "HgN/A
10:00 am82 °FScattered clouds.14 mph70%30.04 "HgN/A
9:00 am81 °FScattered clouds.14 mph74%30.04 "HgN/A
8:00 am79 °FScattered showers. Scattered clouds.5 mph84%30.04 "Hg5 mi
7:20 am75 °FRain. Fog.10 mph89%30.04 "Hg2 mi
7:00 am77 °FScattered showers. Broken clouds.13 mph83%30.01 "Hg5 mi
6:00 am79 °FScattered clouds.10 mph79%29.98 "HgN/A
5:00 am77 °FPassing clouds.9 mph83%29.98 "HgN/A
4:00 am79 °FPassing clouds.9 mph79%29.98 "HgN/A
3:00 am77 °FPassing clouds.12 mph83%29.98 "HgN/A
2:00 am77 °FPartly cloudy.9 mph83%29.98 "HgN/A
1:00 am79 °FPartly cloudy.10 mph79%29.98 "HgN/A
12:00 am79 °FPassing clouds.12 mph79%30.01 "HgN/A
11:00 pm
Sat, Oct 12
79 °FPassing clouds.14 mph84%30.01 "HgN/A
10:00 pm79 °FPartly cloudy.12 mph84%30.04 "HgN/A
Weather by CustomWeather, © 2019

See weather overview